ESFSR EEPU-EETN

Flight info

Callsign ESFSR
Flight time 0h 28m
Altitude 6000
Route KEMET
Aircraft SR22/L-SBDGRY/S

Departure

Time 2026-05-06 16:29
Airport Pärnu Airport (EEPU)

Arrival

Time 2026-05-06 16:58
Airport Lennart Meri Tallinn Airport (EETN)
Time Latitude Longitude Altitude Speed Heading
2026-05-06 16:11 58.42153 24.46837 39 ft 0 kts 192°
2026-05-06 16:24 58.42132 24.46804 39 ft 10 kts 228°
2026-05-06 16:24 58.42082 24.46731 39 ft 8 kts 216°
2026-05-06 16:24 58.42054 24.46715 39 ft 3 kts 139°
2026-05-06 16:25 58.42036 24.46764 39 ft 8 kts 124°
2026-05-06 16:25 58.41997 24.46880 39 ft 11 kts 128°
2026-05-06 16:25 58.41966 24.46966 39 ft 7 kts 123°
2026-05-06 16:25 58.41950 24.47011 39 ft 7 kts 122°
2026-05-06 16:26 58.41945 24.47028 39 ft 0 kts 126°
2026-05-06 16:27 58.41934 24.47058 39 ft 8 kts 124°
2026-05-06 16:27 58.41887 24.47183 38 ft 14 kts 148°
2026-05-06 16:27 58.41797 24.47118 37 ft 18 kts 216°
2026-05-06 16:28 58.41696 24.46978 39 ft 9 kts 232°
2026-05-06 16:28 58.41678 24.46952 39 ft 1 kts 99°
2026-05-06 16:28 58.41681 24.46962 39 ft 0 kts 35°
2026-05-06 16:28 58.41804 24.47127 37 ft 62 kts 36°
2026-05-06 16:29 58.42268 24.47745 241 ft 93 kts 37°
2026-05-06 16:29 58.42854 24.48515 559 ft 109 kts 31°
2026-05-06 16:29 58.43541 24.49278 833 ft 118 kts 29°
2026-05-06 16:29 58.44260 24.50042 1115 ft 118 kts 33°
2026-05-06 16:30 58.44720 24.50648 1307 ft 119 kts 36°
2026-05-06 16:30 58.45232 24.51016 1496 ft 122 kts
2026-05-06 16:30 58.46348 24.51140 1878 ft 120 kts 11°
2026-05-06 16:30 58.47186 24.51353 2167 ft 122 kts 11°
2026-05-06 16:31 58.48026 24.51587 2499 ft 121 kts 11°
2026-05-06 16:31 58.48872 24.51829 2770 ft 124 kts 12°
2026-05-06 16:31 58.49723 24.52074 3042 ft 124 kts 11°
2026-05-06 16:31 58.50581 24.52320 3327 ft 125 kts 11°
2026-05-06 16:32 58.51446 24.52575 3603 ft 126 kts 12°
2026-05-06 16:32 58.52315 24.52832 3893 ft 127 kts 11°
2026-05-06 16:32 58.53187 24.53086 4195 ft 127 kts 11°
2026-05-06 16:32 58.54063 24.53339 4504 ft 128 kts 12°
2026-05-06 16:33 58.54945 24.53592 4809 ft 129 kts 11°
2026-05-06 16:33 58.55826 24.53848 5085 ft 130 kts 11°
2026-05-06 16:33 58.56725 24.54113 5363 ft 132 kts 11°
2026-05-06 16:34 58.58561 24.54650 5934 ft 135 kts 12°
2026-05-06 16:34 58.59546 24.54944 5978 ft 152 kts 11°
2026-05-06 16:34 58.60627 24.55270 5982 ft 162 kts 11°
2026-05-06 16:34 58.61766 24.55607 5981 ft 168 kts 10°
2026-05-06 16:35 58.62927 24.55948 5985 ft 168 kts 11°
2026-05-06 16:35 58.64082 24.56288 5984 ft 168 kts 11°
2026-05-06 16:35 58.65226 24.56621 5986 ft 168 kts 11°
2026-05-06 16:35 58.66382 24.56959 5988 ft 168 kts 11°
2026-05-06 16:36 58.67538 24.57298 5987 ft 168 kts 11°
2026-05-06 16:36 58.68693 24.57638 5985 ft 168 kts 11°
2026-05-06 16:36 58.69859 24.57975 5987 ft 169 kts 10°
2026-05-06 16:36 58.71026 24.58317 5988 ft 170 kts 11°
2026-05-06 16:37 58.72180 24.58698 5985 ft 170 kts 17°
2026-05-06 16:37 58.73223 24.59705 5978 ft 168 kts 33°
2026-05-06 16:37 58.74248 24.60797 5986 ft 168 kts 30°
2026-05-06 16:37 58.75277 24.61868 5988 ft 168 kts 31°
2026-05-06 16:38 58.76302 24.62949 5989 ft 167 kts 31°
2026-05-06 16:38 58.77320 24.64023 5989 ft 167 kts 31°
2026-05-06 16:38 58.78340 24.65099 5980 ft 167 kts 31°
2026-05-06 16:38 58.79353 24.66170 5988 ft 167 kts 30°
2026-05-06 16:39 58.80371 24.67243 5983 ft 167 kts 31°
2026-05-06 16:39 58.81391 24.68325 5982 ft 167 kts 32°
2026-05-06 16:39 58.82409 24.69409 5981 ft 167 kts 31°
2026-05-06 16:39 58.83424 24.70486 5984 ft 167 kts 31°
2026-05-06 16:40 58.84444 24.71569 5988 ft 167 kts 31°
2026-05-06 16:40 58.85464 24.72649 5985 ft 167 kts 31°
2026-05-06 16:40 58.86484 24.73728 5987 ft 167 kts 32°
2026-05-06 16:40 58.87504 24.74821 5988 ft 167 kts 31°
2026-05-06 16:41 58.88510 24.75890 5991 ft 167 kts 30°
2026-05-06 16:41 58.89531 24.76975 5986 ft 167 kts 31°
2026-05-06 16:41 58.90554 24.78063 5991 ft 168 kts 31°
2026-05-06 16:41 58.91575 24.79150 5990 ft 167 kts 31°
2026-05-06 16:42 58.92598 24.80244 5990 ft 167 kts 31°
2026-05-06 16:42 58.93618 24.81336 5989 ft 167 kts 31°
2026-05-06 16:42 58.94635 24.82423 5989 ft 166 kts 29°
2026-05-06 16:42 58.95639 24.83492 5992 ft 166 kts 28°
2026-05-06 16:43 58.96655 24.84579 5994 ft 167 kts 28°
2026-05-06 16:43 58.97674 24.85669 5992 ft 167 kts 29°
2026-05-06 16:43 58.98690 24.86758 5994 ft 167 kts 28°
2026-05-06 16:43 58.99705 24.87847 5994 ft 166 kts 29°
2026-05-06 16:44 59.00722 24.88935 5994 ft 167 kts 29°
2026-05-06 16:44 59.01724 24.90014 5993 ft 167 kts 29°
2026-05-06 16:44 59.02737 24.91102 5993 ft 166 kts 29°
2026-05-06 16:44 59.03749 24.92188 5991 ft 166 kts 29°
2026-05-06 16:45 59.04763 24.93279 5991 ft 166 kts 29°
2026-05-06 16:45 59.05775 24.94368 5995 ft 166 kts 28°
2026-05-06 16:45 59.06788 24.95459 5994 ft 166 kts 29°
2026-05-06 16:45 59.07800 24.96546 5996 ft 166 kts 28°
2026-05-06 16:46 59.08815 24.97641 5997 ft 166 kts 28°
2026-05-06 16:46 59.09828 24.98732 5997 ft 166 kts 29°
2026-05-06 16:46 59.10840 24.99826 5994 ft 166 kts 29°
2026-05-06 16:46 59.11853 25.00919 5999 ft 166 kts 29°
2026-05-06 16:47 59.12865 25.02018 6000 ft 166 kts 29°
2026-05-06 16:47 59.13877 25.03112 5997 ft 166 kts 29°
2026-05-06 16:47 59.14879 25.04196 6005 ft 166 kts 29°
2026-05-06 16:47 59.15893 25.05293 6005 ft 166 kts 29°
2026-05-06 16:48 59.16903 25.06391 6004 ft 166 kts 29°
2026-05-06 16:48 59.17920 25.07501 5830 ft 170 kts 29°
2026-05-06 16:48 59.18967 25.08639 5570 ft 174 kts 30°
2026-05-06 16:48 59.20034 25.09805 5316 ft 176 kts 30°
2026-05-06 16:49 59.21109 25.10972 5058 ft 177 kts 30°
2026-05-06 16:49 59.22189 25.12144 4803 ft 177 kts 31°
2026-05-06 16:49 59.23320 25.13109 4531 ft 179 kts 12°
2026-05-06 16:49 59.24554 25.13315 4299 ft 177 kts
2026-05-06 16:50 59.25776 25.13461 4094 ft 175 kts
2026-05-06 16:50 59.26987 25.13598 3888 ft 174 kts
2026-05-06 16:50 59.28179 25.13712 3678 ft 173 kts
2026-05-06 16:50 59.29374 25.13833 3470 ft 171 kts
2026-05-06 16:51 59.30561 25.13951 3267 ft 170 kts
2026-05-06 16:51 59.31740 25.14066 3054 ft 169 kts
2026-05-06 16:51 59.32906 25.14177 2846 ft 167 kts
2026-05-06 16:51 59.34057 25.14272 2635 ft 165 kts
2026-05-06 16:52 59.35201 25.14367 2429 ft 164 kts
2026-05-06 16:52 59.36332 25.14467 2220 ft 163 kts
2026-05-06 16:52 59.37435 25.14568 2193 ft 156 kts
2026-05-06 16:52 59.38520 25.14670 2190 ft 156 kts
2026-05-06 16:53 59.39607 25.14611 2188 ft 157 kts 352°
2026-05-06 16:53 59.40615 25.13778 2183 ft 160 kts 325°
2026-05-06 16:53 59.41233 25.11970 2184 ft 167 kts 285°
2026-05-06 16:53 59.41241 25.09676 2187 ft 168 kts 271°
2026-05-06 16:54 59.41264 25.07409 2188 ft 163 kts 273°
2026-05-06 16:54 59.41259 25.05192 2079 ft 165 kts 272°
2026-05-06 16:54 59.41272 25.02929 1862 ft 163 kts 274°
2026-05-06 16:54 59.41276 25.00814 1640 ft 149 kts 273°
2026-05-06 16:55 59.41284 24.98854 1439 ft 138 kts 275°
2026-05-06 16:55 59.41291 24.97015 1244 ft 132 kts 274°
2026-05-06 16:55 59.41278 24.95285 1065 ft 127 kts 273°
2026-05-06 16:55 59.41270 24.93625 912 ft 112 kts 277°
2026-05-06 16:56 59.41295 24.92179 735 ft 101 kts 276°
2026-05-06 16:56 59.41291 24.90875 598 ft 91 kts 276°
2026-05-06 16:56 59.41295 24.89760 506 ft 78 kts 277°
2026-05-06 16:56 59.41303 24.88706 409 ft 77 kts 275°
2026-05-06 16:57 59.41304 24.87645 304 ft 78 kts 275°
2026-05-06 16:57 59.41315 24.86589 189 ft 75 kts 275°
2026-05-06 16:57 59.41317 24.85630 158 ft 61 kts 276°
2026-05-06 16:57 59.41322 24.84886 157 ft 50 kts 270°
2026-05-06 16:58 59.41323 24.84224 156 ft 48 kts 271°
2026-05-06 16:58 59.41325 24.83562 159 ft 48 kts 270°
2026-05-06 16:58 59.41329 24.82965 156 ft 33 kts 278°
2026-05-06 16:58 59.41401 24.82535 156 ft 34 kts 300°
2026-05-06 16:59 59.41496 24.82187 157 ft 27 kts 284°
2026-05-06 16:59 59.41504 24.81800 157 ft 30 kts 270°
2026-05-06 16:59 59.41504 24.81381 157 ft 32 kts 270°
2026-05-06 16:59 59.41538 24.81183 157 ft 14 kts 358°
2026-05-06 17:00 59.41651 24.81181 157 ft 18 kts
2026-05-06 17:00 59.41749 24.81210 157 ft 13 kts 69°
2026-05-06 17:00 59.41744 24.81389 157 ft 10 kts 131°
2026-05-06 17:00 59.41688 24.81447 157 ft 10 kts 110°
2026-05-06 17:01 59.41674 24.81482 157 ft 0 kts 152°